This is the latest recevied weather packets stored in our database for station/object KD0OXW. If no packets are shown the sender has not sent any weather packets the latest 10 day(s).
| Time | Temp. | Humidity | Pressure | Rain* | Wind** | Luminosity | Snow |
|---|---|---|---|---|---|---|---|
| 1777592905 | 3.89° C | 58% | 1018.3 hPa | 0 mm | - | - | - |
| 1777592605 | 3.89° C | 58% | 1018.3 hPa | 0 mm | - | - | - |
| 1777592305 | 3.89° C | 58% | 1018.3 hPa | 0 mm | - | - | - |
| 1777592005 | 3.89° C | 60% | 1018.3 hPa | 0 mm | - | - | - |
| 1777591705 | 4.44° C | 59% | 1018.3 hPa | 0 mm | - | - | - |
| 1777591405 | 4.44° C | 59% | 1018.3 hPa | 0 mm | - | - | - |
| 1777591105 | 4.44° C | 58% | 1018.3 hPa | 0 mm | - | - | - |
| 1777590805 | 4.44° C | 57% | 1018.3 hPa | 0 mm | - | - | - |
| 1777590505 | 4.44° C | 58% | 1018.2 hPa | 0 mm | - | - | - |
| 1777590205 | 4.44° C | 55% | 1018.2 hPa | 0 mm | - | - | - |
| 1777589905 | 4.44° C | 56% | 1018.2 hPa | 0 mm | - | - | - |
| 1777589605 | 4.44° C | 56% | 1018.3 hPa | 0 mm | - | - | - |
| 1777589305 | 4.44° C | 56% | 1018.3 hPa | 0 mm | - | - | - |
| 1777589005 | 4.44° C | 54% | 1018.3 hPa | 0 mm | - | - | - |
| 1777588705 | 4.44° C | 55% | 1018.3 hPa | 0 mm | - | - | - |
| 1777588405 | 4.44° C | 57% | 1018.4 hPa | 0 mm | - | - | - |
| 1777588105 | 4.44° C | 57% | 1018.3 hPa | 0 mm | - | - | - |
| 1777587805 | 4.44° C | 57% | 1018.3 hPa | 0 mm | - | - | - |
| 1777587505 | 4.44° C | 55% | 1018.3 hPa | 0 mm | - | - | - |
| 1777587205 | 4.44° C | 54% | 1018.3 hPa | 0 mm | - | - | - |
| 1777586905 | 4.44° C | 53% | 1018.3 hPa | 0 mm | - | - | - |
| 1777586605 | 4.44° C | 54% | 1018.2 hPa | 0 mm | - | - | - |
| 1777586305 | 4.44° C | 54% | 1018.2 hPa | 0 mm | - | - | - |
| 1777586005 | 4.44° C | 54% | 1018.4 hPa | 0 mm | - | - | - |
| 1777585705 | 4.44° C | 54% | 1018.5 hPa | 0 mm | - | - | - |
* Rain latest hour (hover to see other rain measurements)
** Current wind speed in m/s (hover to see current wind gust speed)